Regional Weather Roundup
Issued by NWS

Home | Current Version | Previous Version | Graphics & Text | Print | Product List | Glossary On
Versions: 1 2 3 4 5 6 7 8 9 10 11 12 13 14 15 16 17 18 19 20 21 22 23 24 25 26 27
000
ASUS45 KSLC 231810
RWRUT

UTAH REGIONAL WEATHER ROUNDUP
NATIONAL WEATHER SERVICE SALT LAKE CITY UT
1200 PM MDT THU OCT 23 2014

UTZ001>011-023>025-231900-

NORTHERN UTAH

CITY           SKY/WX    TMP DP  RH WIND       PRES   REMARKS
BRIGHAM CITY   PTSUNNY   59  31  34 CALM      30.16F
HILL AFB       PTSUNNY   63  31  31 S2        30.16F
LOGAN          SUNNY     51  33  50 N3        30.16F
OGDEN          MOSUNNY   63  31  30 VRB3      30.15F
PROVO AIRPORT  MOSUNNY   57  36  44 CALM      30.18F
SALT LAKE CITY MOSUNNY   65  31  28 SE7       30.12F
VERNAL         SUNNY     54  38  54 VRB3      30.26F
WENDOVER       MOSUNNY   55  32  41 E3        30.16F
HEBER CITY     SUNNY     54  32  43 CALM      30.20F
WEST JORDAN    SUNNY     63  37  39 SE22      30.14S

$$

UTZ012>022-026-027-231900-

SOUTHERN/CENTRAL UTAH

CITY           SKY/WX    TMP DP  RH WIND       PRES   REMARKS
BLANDING       SUNNY     61  35  38 SE3       30.39S
BRYCE CANYON   MOSUNNY   57  25  29 SE10      30.36F
CEDAR CITY     MOSUNNY   65  31  28 SW14      30.24S
DELTA          SUNNY     63  31  29 CALM      30.17F
HANKSVILLE       N/A     63  34  34 CALM      30.25F
MILFORD        SUNNY     67  32  27 SW17      30.20F
MOAB/CYNLANDS  SUNNY     65  35  33 VRB5      30.22F
PRICE          SUNNY     60  31  33 SE6       30.28F
ST GEORGE      CLEAR     64  34  32 CALM      30.19F
KANAB            N/A     66  32  28 CALM      30.29F

$$

REGIONAL REPORTS     COLORADO/ARIZONA

CITY           SKY/WX    TMP DP  RH WIND       PRES   REMARKS
CRAIG, CO      SUNNY     60  37  42 VRB3      30.27F
GRAND JUNCTION SUNNY     63  38  39 SE8       30.25F
RIFLE          SUNNY     55  39  54 MISG      30.29F
MONTROSE       SUNNY     62  36  37 CALM      30.31F
CORTEZ         SUNNY     64  37  36 VRB5      30.31F
PAGE, AZ       SUNNY     66  30  26 N3        30.24F
GRAND CANYON   SUNNY     67  34  29 SW6       30.35S
KINGMAN        SUNNY     78  39  24 CALM      30.17S
FLAGSTAFF      SUNNY     67  32  27 VRB3      30.36F

$$

REGIONAL REPORTS    NEVADA/IDAHO/WYOMING

CITY           SKY/WX    TMP DP  RH WIND       PRES   REMARKS
LAS VEGAS, NV  PTSUNNY   76  31  19 SE6       30.07F
ELY            SUNNY     68  22  17 VRB5      30.20F
ELKO           SUNNY     60  22  23 VRB3      30.14F
POCATELLO, ID  SUNNY     63  28  26 SW13      30.13R
BURLEY         PTSUNNY   60  35  39 W9        30.12R
EVANSTON, WY   MOSUNNY   61  26  26 SW17G25   30.22F
ROCK SPRINGS   SUNNY     54  33  45 N3        30.21F
KEMMERER       MOSUNNY   55  27  33 SW13      30.23F

$$



USA.gov is the U.S. government's official web portal to all federal, state and local government web resources and services.